Lid_Strength_Index
2 2 3 4 4 4 4 3 3 2 2 2 2 2 2 1 1 6 10 7 4 1 2 6 7 8 8 9 9 11 14 16 15 15 14 12 12 10 10 11 10 10 10 9 9
2 2 2 2 3 4 4 4 3 3 2 2 2 2 2 1 5 8 4 3 2 1 7 8 9 9 11 11 11 12 15 15 14 14 13 12 12 12 12 12 12 11 10 9 9
1 1 2 2 3 3 4 4 4 3 3 3 2 2 2 3 9 9 2 3 1 2 7 7 8 9 11 11 12 13 15 15 13 12 12 12 13 11 12 13 12 12 11 10 10
0 1 1 2 2 2 3 3 3 3 3 3 3 2 2 6 14 8 2 2 1 4 7 9 9 11 12 13 12 14 13 13 12 11 12 13 12 12 12 12 10 11 10 11 10
2 0 1 1 1 2 2 2 3 3 3 3 3 2 5 11 11 7 3 4 6 6 9 9 10 11 13 13 13 14 14 12 12 12 12 12 13 13 13 12 11 10 11 11 10
2 2 1 1 1 1 2 2 2 3 3 3 3 3 8 14 7 7 7 6 7 8 9 9 10 10 12 12 13 13 12 13 12 12 12 13 13 13 13 12 12 11 12 11 10
0 1 2 1 1 2 1 1 2 2 2 3 3 6 10 12 8 8 7 7 7 8 9 8 8 11 11 13 11 12 14 14 13 12 13 13 15 14 12 12 12 12 12 11 11
2 1 1 2 2 2 2 2 1 2 2 2 3 9 14 8 8 8 7 7 7 7 7 7 8 9 11 11 13 14 15 17 15 13 13 14 16 13 13 13 12 13 13 12 11
3 3 2 1 2 2 2 2 2 1 2 3 8 11 15 7 10 8 8 9 8 8 8 8 9 11 12 15 16 17 18 18 16 13 13 14 16 13 13 13 13 13 13 12 11
3 4 3 2 1 2 3 3 3 4 4 5 6 13 12 12 10 9 9 8 9 10 10 11 13 15 15 16 18 18 18 17 18 15 14 15 15 13 13 13 13 13 13 13 12
4 4 4 4 3 1 4 7 12 12 10 13 13 14 10 8 8 9 9 10 10 12 15 14 16 18 16 15 15 16 17 17 17 15 16 16 16 15 13 14 13 13 13 13 12
5 5 5 4 4 2 6 8 11 12 16 13 11 10 8 8 11 9 7 12 13 16 15 16 18 15 15 15 16 17 17 18 17 16 16 17 16 14 15 15 15 14 14 13 13
5 5 5 4 3 5 7 7 7 10 16 15 11 12 10 10 12 11 9 11 14 15 15 16 16 14 15 16 16 17 18 19 18 17 17 19 17 16 15 14 14 13 14 13 13
6 5 6 5 5 6 7 6 7 8 13 13 15 12 11 11 14 11 10 11 13 16 15 16 15 15 17 17 16 18 16 17 18 18 21 18 21 18 17 17 15 14 14 14 13
4 6 6 6 7 8 8 7 7 8 20 14 15 11 12 14 13 13 11 13 15 15 15 17 16 17 17 17 16 17 16 17 18 19 20 20 22 18 18 18 16 14 14 14 14
4 5 6 7 7 7 7 7 6 14 20 17 14 15 15 14 14 13 12 12 13 15 16 17 15 16 16 16 17 16 17 18 19 20 23 22 22 18 19 18 17 15 14 15 15
4 4 6 8 9 7 7 7 15 18 13 17 17 15 16 16 15 15 15 16 17 20 19 17 17 17 16 17 16 17 19 22 23 24 22 20 21 18 17 16 16 15 14 15 15
4 4 5 4 6 7 8 13 18 15 15 15 16 16 17 15 16 16 16 18 16 18 19 20 22 18 16 17 18 19 19 21 24 24 23 20 22 17 16 16 15 15 15 15 16
4 8 6 3 4 7 10 17 15 14 13 15 15 18 18 16 16 17 17 17 16 16 18 20 21 18 17 16 17 19 20 18 22 26 24 21 19 17 17 17 16 16 15 15 16
9 9 8 2 3 6 11 14 14 11 13 14 14 15 19 18 17 17 18 16 16 15 15 17 20 18 17 16 17 18 18 21 22 25 26 22 21 19 18 17 17 16 16 16 16
10 11 6 2 3 9 15 13 13 11 10 13 13 15 16 17 17 18 17 16 15 15 15 16 17 19 17 18 19 19 20 20 20 21 23 24 20 18 17 17 17 16 16 16 16
12 20 6 4 10 11 14 12 10 10 9 11 11 13 14 15 17 17 18 16 14 14 16 15 18 22 20 18 17 18 19 19 21 23 23 22 21 17 17 17 16 16 15 16 16
14 17 8 5 13 12 12 12 11 10 10 10 12 11 12 15 16 15 16 14 14 14 15 15 21 25 22 19 19 19 18 19 20 20 23 23 20 17 17 17 17 17 16 16 16
17 17 14 8 10 12 11 12 12 9 10 9 10 10 13 14 13 15 16 15 13 14 12 13 18 19 20 19 19 20 19 18 19 23 21 21 19 17 16 17 17 16 16 16 16
16 19 12 19 17 14 12 13 14 15 12 11 11 11 13 15 14 15 14 15 14 12 14 14 20 19 19 19 18 18 19 18 19 18 20 19 19 15 14 15 15 16 16 16 16
17 13 14 15 12 16 12 14 16 16 14 15 17 17 13 13 13 14 14 14 14 14 15 15 18 20 21 19 19 21 18 18 17 17 19 18 18 14 14 16 17 16 16 16 15
10 7 10 15 15 15 16 15 15 15 14 15 16 17 14 15 14 12 11 11 11 14 15 15 18 18 22 20 21 19 18 19 19 18 16 19 15 16 16 16 16 15 15 15 15